Date String (YYYY-MM-DD hh:mm:ss) UTC,Instrument flags,Ambient pressure (hPa),Sample flow (lpm),Bypass flow (lpm),Sample temperature (°C),Ambient temperature (°C),ASC tube jacket temperature (°C),LED temperature (°C),Box temperature (°C),Sample RH (%),Span deviation,Mass concentration (μg/m³),Mass concentration (μg/m³),Mass concentration (μg/m³)
DateTimeUTC,F1_M11,P_M11,Q1_M11,Q2_M11,T1_M11,T2_M11,T3_M11,T4_M11,T5_M11,U1_M11,ZSPAN_M11,X0_M11,X2_M11,X1_M11
2023-02-21 09:00:00,,0814.3,4.98,0.00,22.3,22.2,00.0,30.9,24.2,14.1,0000.0,0004.38,0002.92,0002.25
2023-02-21 09:01:00,,0814.1,5.03,0.00,22.3,21.8,00.0,31.0,24.2,14.1,0000.0,0004.47,0003.05,0002.39
2023-02-21 09:02:00,,0814.1,4.98,0.00,22.3,21.5,00.0,31.0,24.1,13.9,0000.0,0004.73,0003.17,0002.52
2023-02-21 09:03:00,,0814.0,5.02,0.00,22.3,21.2,00.0,31.0,24.1,14.2,0000.0,0004.91,0003.24,0002.62
2023-02-21 09:04:00,,0814.0,5.00,0.00,22.3,21.0,00.0,31.1,24.0,14.9,0000.0,0005.31,0003.33,0002.70
2023-02-21 09:05:00,,0814.0,5.00,0.00,22.3,20.8,00.0,31.1,24.0,15.1,0000.0,0006.22,0003.40,0002.81
2023-02-21 09:06:00,,0814.1,5.00,0.00,22.2,20.7,00.0,31.1,24.0,15.2,0000.0,0007.41,0003.47,0002.92
2023-02-21 09:07:00,,0814.1,4.99,0.00,22.2,20.6,00.0,31.1,23.9,15.1,0000.0,0007.42,0003.53,0003.06
2023-02-21 09:08:00,,0813.9,5.02,0.00,22.2,20.6,00.0,31.1,23.9,14.7,0000.0,0007.39,0003.54,0003.08
2023-02-21 09:09:00,,0813.9,5.00,0.00,22.2,20.5,00.0,31.1,23.9,14.3,0000.0,0007.39,0003.49,0003.00
2023-02-21 09:10:00,,0813.9,5.00,0.00,22.2,20.5,00.0,31.1,23.9,14.1,0000.0,0007.32,0003.43,0002.91
2023-02-21 09:11:00,,0814.2,4.99,0.00,22.2,20.5,00.0,31.1,23.9,13.9,0000.0,0007.34,0003.39,0002.85
2023-02-21 09:12:00,,0814.1,5.00,0.00,22.2,20.5,00.0,31.1,23.9,13.9,0000.0,0007.43,0003.38,0002.80
2023-02-21 09:13:00,,0813.9,5.01,0.00,22.1,20.5,00.0,31.1,23.9,13.9,0000.0,0007.44,0003.37,0002.78
2023-02-21 09:14:00,,0814.0,4.99,0.00,22.1,20.5,00.0,31.1,23.9,13.9,0000.0,0007.40,0003.34,0002.73
2023-02-21 09:15:00,,0813.9,4.99,0.00,22.1,20.4,00.0,31.1,23.9,13.7,0000.0,0007.06,0003.23,0002.60
2023-02-21 09:16:00,,0814.1,4.99,0.00,22.1,20.4,00.0,31.1,23.9,13.5,0000.0,0006.19,0002.99,0002.34
2023-02-21 09:17:00,,0814.1,5.01,0.00,22.1,20.4,00.0,31.0,23.8,13.5,0000.0,0004.96,0002.69,0002.09
2023-02-21 09:18:00,,0813.6,5.01,0.00,22.1,20.4,00.0,31.0,23.8,13.4,0000.0,0004.55,0002.37,0001.83
2023-02-21 09:19:00,,0813.5,5.01,0.00,22.1,20.3,00.0,31.0,23.8,13.1,0000.0,0004.19,0002.10,0001.59
2023-02-21 09:20:00,,0813.5,5.01,0.00,22.0,20.3,00.0,31.0,23.8,13.1,0000.0,0003.85,0001.89,0001.45
2023-02-21 09:21:00,,0813.4,4.99,0.00,22.0,20.3,00.0,31.0,23.7,13.2,0000.0,0003.43,0001.69,0001.30
2023-02-21 09:22:00,,0813.4,5.00,0.00,22.0,20.3,00.0,31.0,23.7,13.0,0000.0,0003.24,0001.56,0001.18
2023-02-21 09:23:00,,0813.4,5.00,0.00,22.0,20.2,00.0,31.0,23.7,13.0,0000.0,0002.95,0001.45,0001.08
2023-02-21 09:24:00,,0813.4,4.99,0.00,22.0,20.2,00.0,31.0,23.7,13.0,0000.0,0002.64,0001.29,0000.96
2023-02-21 09:25:00,,0813.4,4.99,0.00,22.0,20.2,00.0,30.9,23.7,13.1,0000.0,0002.97,0001.17,0000.86
2023-02-21 09:26:00,,0813.3,5.00,0.00,22.0,20.2,00.0,30.9,23.7,13.2,0000.0,0003.42,0001.06,0000.76
2023-02-21 09:27:00,,0813.3,5.01,0.00,21.9,20.2,00.0,30.9,23.7,13.1,0000.0,0003.37,0001.06,0000.73
2023-02-21 09:28:00,,0813.3,5.01,0.00,22.0,20.7,00.0,30.9,23.8,13.0,0000.0,0002.80,0001.06,0000.69
2023-02-21 09:29:00,,0813.3,4.98,0.00,22.1,22.0,00.0,30.8,24.1,13.0,0000.0,0002.84,0001.04,0000.65
2023-02-21 09:30:00,,0813.4,5.00,0.00,22.2,23.1,00.0,30.8,24.4,12.6,0000.0,0002.92,0001.03,0000.61
2023-02-21 09:31:00,,0813.3,4.97,0.00,22.3,22.9,00.0,30.9,24.4,12.7,0000.0,0002.91,0001.02,0000.60
2023-02-21 09:32:00,,0813.2,5.00,0.00,22.3,22.4,00.0,31.0,24.3,13.1,0000.0,0002.95,0001.04,0000.62
2023-02-21 09:33:00,,0813.2,4.97,0.00,22.3,21.9,00.0,31.0,24.2,12.8,0000.0,0003.61,0001.04,0000.63
2023-02-21 09:34:00,,0813.2,5.00,0.00,22.3,21.6,00.0,31.1,24.1,12.8,0000.0,0003.72,0001.01,0000.62
2023-02-21 09:35:00,,0813.1,5.00,0.00,22.3,21.3,00.0,31.1,24.1,12.9,0000.0,0003.76,0001.00,0000.63
2023-02-21 09:36:00,,0813.1,5.00,0.00,22.3,21.0,00.0,31.1,24.1,13.2,0000.0,0003.54,0000.99,0000.63
2023-02-21 09:37:00,,0813.1,5.01,0.00,22.3,20.9,00.0,31.1,24.0,13.1,0000.0,0002.63,0000.97,0000.64
2023-02-21 09:38:00,,0813.2,5.02,0.00,22.3,20.8,00.0,31.1,24.0,13.1,0000.0,0002.63,0001.00,0000.66
2023-02-21 09:39:00,,0813.2,5.00,0.00,22.3,20.8,00.0,31.1,24.0,13.3,0000.0,0002.63,0001.01,0000.69
2023-02-21 09:40:00,,0813.1,5.01,0.00,22.2,20.7,00.0,31.1,24.0,13.0,0000.0,0002.52,0000.97,0000.70
2023-02-21 09:41:00,,0813.2,5.01,0.00,22.2,20.6,00.0,31.1,24.0,12.8,0000.0,0002.42,0000.96,0000.70
2023-02-21 09:42:00,,0813.1,4.99,0.00,22.2,20.6,00.0,31.1,24.0,13.1,0000.0,0002.51,0000.99,0000.72
2023-02-21 09:43:00,,0813.0,5.00,0.00,22.2,20.5,00.0,31.1,23.9,13.6,0000.0,0002.75,0001.09,0000.78
2023-02-21 09:44:00,,0813.0,5.00,0.00,22.1,20.4,00.0,31.1,23.8,13.7,0000.0,0002.41,0001.20,0000.87
2023-02-21 09:45:00,,0813.1,5.00,0.00,22.1,20.2,00.0,31.1,23.7,13.8,0000.0,0002.27,0001.33,0000.98
2023-02-21 09:46:00,,0813.1,5.01,0.00,22.0,20.1,00.0,31.1,23.6,14.1,0000.0,0002.62,0001.50,0001.10
2023-02-21 09:47:00,,0813.1,4.99,0.00,22.0,20.0,00.0,31.0,23.5,14.4,0000.0,0002.88,0001.65,0001.23
2023-02-21 09:48:00,,0812.9,5.00,0.00,21.9,19.9,00.0,31.0,23.4,14.6,0000.0,0003.26,0001.87,0001.41
2023-02-21 09:49:00,,0813.1,5.00,0.00,21.9,19.8,00.0,31.0,23.4,14.6,0000.0,0003.58,0002.08,0001.58
2023-02-21 09:50:00,,0812.9,5.01,0.00,21.8,19.8,00.0,31.0,23.4,14.3,0000.0,0003.74,0002.15,0001.67
2023-02-21 09:51:00,,0812.9,4.99,0.00,21.8,20.0,00.0,30.9,23.5,14.3,0000.0,0003.92,0002.26,0001.78
2023-02-21 09:52:00,,0813.0,5.00,0.00,21.9,21.3,00.0,30.8,23.8,14.5,0000.0,0004.76,0002.44,0001.93
2023-02-21 09:53:00,,0812.8,5.02,0.00,22.0,22.5,00.0,30.8,24.1,14.6,0000.0,0005.25,0002.69,0002.13
2023-02-21 09:54:00,,0812.7,5.02,0.00,22.2,22.7,00.0,30.9,24.2,14.5,0000.0,0005.81,0002.86,0002.30
2023-02-21 09:55:00,,0812.6,5.00,0.00,22.2,22.1,00.0,30.9,24.1,14.5,0000.0,0006.00,0002.95,0002.39
2023-02-21 09:56:00,,0812.7,5.01,0.00,22.1,21.6,00.0,31.0,24.0,14.4,0000.0,0006.13,0003.05,0002.50
2023-02-21 09:57:00,,0812.7,5.02,0.00,22.1,21.3,00.0,31.0,23.9,14.3,0000.0,0006.59,0003.11,0002.56
2023-02-21 09:58:00,,0812.6,5.00,0.00,22.1,21.0,00.0,31.0,23.8,14.2,0000.0,0006.85,0003.07,0002.55
2023-02-21 09:59:00,,0812.6,5.00,0.00,22.1,20.7,00.0,31.0,23.7,14.1,0000.0,0007.24,0003.02,0002.49
